Station Historical Data
Daily Summary for January 20, 2017 Units:  Metric    English   Both
« Previous Day
Next Day »
Daily Weekly Monthly Yearly Custom
  High: Low: Average:
Temperature: 22.2 °C 13 °C 16.4 °C
Dew Point: 15.7 °C 12 °C 12.9 °C
Humidity: 95% 54% 81%
Wind Speed: 14.8km/h 14.8km/h 14.8km/h
Wind Gust: 14.8km/h - -
Wind- - South
Pressure: 1012.4 hPa 1007 hPa -
Precipitation: 9.14 mm    
Historical Graphs
 
 
Tabular Data for January 20, 2017
Time Temperature Dew Point Pressure Wind Wind Speed Wind Gust Humidity Rainfall Rate (Hourly) solar Conditions
00:03 13.7 °C 12.4 °C 1012.1 hPa NNW 14.8 km/h   92% 10.92 mm 0.0 W/m2 RA
00:08 13.8 °C 12.5 °C 1011.7 hPa NNW 14.8 km/h   92% 0.25 mm 0.0 W/m2 RA
00:13 13.8 °C 12.6 °C 1011.4 hPa NNW 14.8 km/h   92% 1.02 mm 0.0 W/m2 RA
00:19 13.8 °C 12.6 °C 1011.4 hPa NNW 14.8 km/h   92% 1.78 mm 0.0 W/m2 RA
00:24 13.8 °C 12.6 °C 1011.4 hPa NNW 14.8 km/h   92% 2.54 mm 0.0 W/m2 RA
00:29 13.8 °C 12.6 °C 1011.1 hPa NNW 14.8 km/h   92% 2.54 mm 0.0 W/m2 RA
00:34 13.8 °C 12.6 °C 1011.1 hPa NNW 14.8 km/h   92% 2.29 mm 0.0 W/m2 RA
00:39 13.8 °C 12.6 °C 1010.4 hPa NNW 14.8 km/h   92% 1.78 mm 0.0 W/m2 RA
00:44 13.8 °C 12.5 °C 1010 hPa NW 14.8 km/h 14.8 km/h 92% 1.02 mm 0.0 W/m2 RA
00:49 13.8 °C 12.5 °C 1010 hPa NW 14.8 km/h 14.8 km/h 92% 0 mm 0.0 W/m2
00:54 13.3 °C 12 °C 1010 hPa NW 14.8 km/h   92% 10.92 mm 0.0 W/m2
00:59 13.3 °C 12 °C 1009.7 hPa NW 14.8 km/h   92% 9.65 mm 0.0 W/m2
01:04 13.3 °C 12 °C 1008.7 hPa NNE 14.8 km/h   92% 8.13 mm 0.0 W/m2
01:09 13.3 °C 12 °C 1007 hPa North 14.8 km/h   92% 6.86 mm 0.0 W/m2
01:15 13.3 °C 12 °C 1008.4 hPa North 14.8 km/h   92% 5.33 mm 0.0 W/m2
01:20 13.3 °C 12 °C 1008 hPa North 14.8 km/h   92% 4.06 mm 0.0 W/m2
01:25 13.3 °C 12 °C 1008.4 hPa North 14.8 km/h   92% 3.05 mm 0.0 W/m2
01:30 13.3 °C 12 °C 1008.4 hPa North 14.8 km/h   92% 2.29 mm 0.0 W/m2
01:35 13.3 °C 12 °C 1008.7 hPa North 14.8 km/h   92% 1.52 mm 0.0 W/m2
01:40 13.3 °C 12 °C 1009.4 hPa North 14.8 km/h   92% 1.02 mm 0.0 W/m2
01:45 13.3 °C 12 °C 1009.7 hPa North 14.8 km/h   92% 0.51 mm 0.0 W/m2
01:50 13.3 °C 12 °C 1009.7 hPa North 14.8 km/h   92% 0 mm 0.0 W/m2
01:55 13.3 °C 12 °C 1009.7 hPa North 14.8 km/h   92% 0 mm 0.0 W/m2
02:01 13.3 °C 12 °C 1009.7 hPa North 14.8 km/h   92% 0 mm 0.0 W/m2
02:06 13.3 °C 12 °C 1010 hPa North 14.8 km/h   92% 0 mm 0.0 W/m2
02:11 13.3 °C 12 °C 1010 hPa North 14.8 km/h   92% 0 mm 0.0 W/m2
02:16 13.3 °C 12 °C 1010 hPa North 14.8 km/h   92% 0 mm 0.0 W/m2
02:21 13.3 °C 12 °C 1009.7 hPa North 14.8 km/h   92% 0 mm 0.0 W/m2
02:26 13.3 °C 12 °C 1009.7 hPa North 14.8 km/h   92% 0 mm 0.0 W/m2
02:31 13.3 °C 12 °C 1009.7 hPa North 14.8 km/h   92% 0 mm 0.0 W/m2
02:36 13.3 °C 12 °C 1009.7 hPa North 14.8 km/h   92% 0 mm 0.0 W/m2
02:41 13.3 °C 12 °C 1009.7 hPa North 14.8 km/h   92% 0 mm 0.0 W/m2
02:46 13.3 °C 12 °C 1009.7 hPa North 14.8 km/h   92% 0 mm 0.0 W/m2
02:51 13.3 °C 12 °C 1009.7 hPa North 14.8 km/h   92% 0 mm 0.0 W/m2
02:57 13.3 °C 12 °C 1009.7 hPa North 14.8 km/h   92% 0 mm 0.0 W/m2
03:02 13.3 °C 12 °C 1009.7 hPa North 14.8 km/h   92% 0 mm 0.0 W/m2
03:07 13.3 °C 12 °C 1009.7 hPa North 14.8 km/h   92% 0 mm 0.0 W/m2
03:12 13.3 °C 12 °C 1009.7 hPa North 14.8 km/h   92% 0 mm 0.0 W/m2
03:17 13.3 °C 12 °C 1009.7 hPa North 14.8 km/h   92% 0 mm 0.0 W/m2
03:22 13.3 °C 12 °C 1009.7 hPa North 14.8 km/h   92% 0 mm 0.0 W/m2
03:27 13.3 °C 12 °C 1009.7 hPa North 14.8 km/h   92% 0 mm 0.0 W/m2
03:32 13.3 °C 12 °C 1009.7 hPa North 14.8 km/h   92% 0 mm 0.0 W/m2
03:37 13.3 °C 12 °C 1009.7 hPa North 14.8 km/h   92% 0 mm 0.0 W/m2
03:42 13.3 °C 12 °C 1009.7 hPa North 14.8 km/h   92% 0 mm 0.0 W/m2
03:48 13.3 °C 12 °C 1009.7 hPa North 14.8 km/h   92% 0 mm 0.0 W/m2
03:53 13.3 °C 12 °C 1009.7 hPa North 14.8 km/h   92% 0 mm 0.0 W/m2
03:58 13.3 °C 12 °C 1009.7 hPa North 14.8 km/h   92% 0 mm 0.0 W/m2
04:03 13.3 °C 12 °C 1009.7 hPa North 14.8 km/h   92% 0 mm 0.0 W/m2
04:08 13.3 °C 12 °C 1009.7 hPa North 14.8 km/h   92% 0 mm 0.0 W/m2
04:13 13.3 °C 12 °C 1009.7 hPa North 14.8 km/h   92% 0 mm 0.0 W/m2
04:18 13.3 °C 12 °C 1009.4 hPa North 14.8 km/h   92% 0 mm 0.0 W/m2
04:23 13.3 °C 12 °C 1009.4 hPa North 14.8 km/h   92% 0 mm 0.0 W/m2
04:28 13.3 °C 12 °C 1009.4 hPa North 14.8 km/h   92% 0 mm 0.0 W/m2
04:33 13.3 °C 12 °C 1009.4 hPa North 14.8 km/h   92% 0 mm 0.0 W/m2
04:39 13.3 °C 12 °C 1009.4 hPa North 14.8 km/h   92% 0 mm 0.0 W/m2
04:44 13.3 °C 12 °C 1009.4 hPa North 14.8 km/h   92% 0 mm 0.0 W/m2
04:49 13.3 °C 12 °C 1009.4 hPa North 14.8 km/h   92% 0 mm 0.0 W/m2
04:54 13.3 °C 12 °C 1009.4 hPa North 14.8 km/h   92% 0 mm 0.0 W/m2
04:59 13.3 °C 12 °C 1009.4 hPa North 14.8 km/h   92% 0 mm 0.0 W/m2
05:04 13.3 °C 12 °C 1009.4 hPa North 14.8 km/h   92% 0 mm 0.0 W/m2
05:09 13.3 °C 12 °C 1009.7 hPa North 14.8 km/h   92% 0 mm 0.0 W/m2
05:14 13.3 °C 12 °C 1009.4 hPa North 14.8 km/h   92% 0 mm 0.0 W/m2
05:19 13.3 °C 12 °C 1009.4 hPa North 14.8 km/h   92% 0 mm 0.0 W/m2
05:24 13.3 °C 12 °C 1009.4 hPa North 14.8 km/h   92% 0 mm 0.0 W/m2
05:30 13.3 °C 12 °C 1009.7 hPa North 14.8 km/h   92% 0 mm 0.0 W/m2
05:35 13.3 °C 12 °C 1009.7 hPa North 14.8 km/h   92% 0 mm 0.0 W/m2
05:40 13.3 °C 12 °C 1009.7 hPa North 14.8 km/h   92% 0 mm 0.0 W/m2
05:45 13.3 °C 12 °C 1009.7 hPa North 14.8 km/h   92% 0 mm 0.0 W/m2
05:50 13.3 °C 12 °C 1009.7 hPa North 14.8 km/h   92% 0 mm 0.0 W/m2
05:55 13.3 °C 12 °C 1009.7 hPa North 14.8 km/h   92% 0 mm 0.0 W/m2
06:00 13.3 °C 12 °C 1009.7 hPa North 14.8 km/h   92% 0 mm 0.0 W/m2
06:05 13.3 °C 12 °C 1009.7 hPa North 14.8 km/h   92% 0 mm 0.0 W/m2
06:10 13.3 °C 12 °C 1009.7 hPa North 14.8 km/h   92% 0 mm 0.0 W/m2
06:15 13.3 °C 12 °C 1009.7 hPa North 14.8 km/h   92% 0 mm 0.0 W/m2
06:20 13.3 °C 12 °C 1010 hPa North 14.8 km/h   92% 0 mm 0.0 W/m2
06:25 13.3 °C 12 °C 1010 hPa North 14.8 km/h   92% 0 mm 0.0 W/m2
06:30 13.3 °C 12 °C 1010 hPa North 14.8 km/h   92% 0 mm 0.0 W/m2
06:35 13.3 °C 12 °C 1010 hPa North 14.8 km/h   92% 0 mm 0.0 W/m2
06:41 13.3 °C 12 °C 1010 hPa North 14.8 km/h   92% 0 mm 0.0 W/m2
06:46 13.3 °C 12 °C 1010 hPa North 14.8 km/h   92% 0 mm 0.0 W/m2
06:51 13.3 °C 12 °C 1010 hPa North 14.8 km/h   92% 0 mm 0.0 W/m2
06:56 13.3 °C 12 °C 1010 hPa North 14.8 km/h   92% 0 mm 0.0 W/m2
07:01 13.3 °C 12 °C 1010 hPa North 14.8 km/h   92% 0 mm 0.0 W/m2
07:06 13.3 °C 12 °C 1010 hPa North 14.8 km/h   92% 0 mm 0.0 W/m2
07:11 13.3 °C 12 °C 1010 hPa North 14.8 km/h   92% 0 mm 0.0 W/m2 CLR
07:16 13.3 °C 12 °C 1010 hPa North 14.8 km/h   92% 0 mm 0.0 W/m2 CLR
07:21 13.3 °C 12 °C 1010 hPa North 14.8 km/h   92% 0 mm 0.0 W/m2 CLR
07:26 13.3 °C 12 °C 1010.4 hPa North 14.8 km/h   92% 0 mm 0.0 W/m2 CLR
07:32 13.3 °C 12 °C 1010.4 hPa North 14.8 km/h   92% 0 mm 0.0 W/m2 CLR
07:37 13.3 °C 12 °C 1010.4 hPa North 14.8 km/h   92% 0 mm 0.0 W/m2 CLR
07:42 13.3 °C 12 °C 1010.4 hPa North 14.8 km/h   92% 0 mm 0.0 W/m2 CLR
07:47 13.3 °C 12 °C 1010.4 hPa North 14.8 km/h   92% 0 mm 0.0 W/m2 CLR
07:52 13.3 °C 12 °C 1010.7 hPa North 14.8 km/h   92% 0 mm 0.0 W/m2 CLR
07:57 13.3 °C 12 °C 1010.4 hPa North 14.8 km/h   92% 0 mm 0.0 W/m2 CLR
08:02 13.3 °C 12 °C 1010.7 hPa North 14.8 km/h   92% 0 mm 0.0 W/m2 CLR
08:07 13.3 °C 12 °C 1010.7 hPa North 14.8 km/h   92% 0 mm 0.0 W/m2 CLR
08:12 13.3 °C 12 °C 1010.7 hPa North 14.8 km/h   92% 0 mm 0.0 W/m2 CLR
08:17 13.3 °C 12 °C 1010.7 hPa North 14.8 km/h   92% 0 mm 0.0 W/m2 CLR
08:23 13.3 °C 12 °C 1010.7 hPa North 14.8 km/h   92% 0 mm 0.0 W/m2 CLR
08:28 13.3 °C 12 °C 1011.1 hPa North 14.8 km/h   92% 0 mm 0.0 W/m2 CLR
08:33 13.3 °C 12 °C 1011.1 hPa North 14.8 km/h   92% 0 mm 0.0 W/m2 CLR
08:38 13.3 °C 12 °C 1011.1 hPa North 14.8 km/h   92% 0 mm 0.0 W/m2 CLR
08:43 13.3 °C 12 °C 1011.1 hPa North 14.8 km/h   92% 0 mm 0.0 W/m2 CLR
08:48 13.3 °C 12 °C 1011.1 hPa North 14.8 km/h   92% 0 mm 0.0 W/m2 CLR
08:53 13.3 °C 12 °C 1011.4 hPa North 14.8 km/h   92% 0 mm 0.0 W/m2 CLR
08:58 13.3 °C 12 °C 1011.4 hPa North 14.8 km/h   92% 0 mm 0.0 W/m2 CLR
09:03 13.3 °C 12 °C 1011.1 hPa North 14.8 km/h   92% 0 mm 0.0 W/m2 OVC
09:08 13.3 °C 12 °C 1011.4 hPa North 14.8 km/h   92% 0 mm 0.0 W/m2 OVC
09:13 16.3 °C 15.4 °C 1011.4 hPa NNW 14.8 km/h   94% 0 mm 0.0 W/m2 OVC
09:19 16.4 °C 15.5 °C 1011.4 hPa NNW 14.8 km/h   94% 0 mm 0.0 W/m2 OVC
09:24 16.5 °C 15.4 °C 1011.4 hPa NW 14.8 km/h 14.8 km/h 93% 0 mm 0.0 W/m2 OVC
09:29 16.6 °C 15.5 °C 1011.4 hPa North 14.8 km/h   93% 0 mm 0.0 W/m2 OVC
09:34 16.7 °C 15.6 °C 1011.7 hPa NW 14.8 km/h   93% 0 mm 0.0 W/m2 OVC
09:36 16.8 °C 15.7 °C 1011.7 hPa NW 14.8 km/h   93% 0 mm 0.0 W/m2 OVC
09:41 16.9 °C 15.6 °C 1012.1 hPa NW 14.8 km/h   92% 0 mm 0.0 W/m2 OVC
09:46 17.1 °C 15.6 °C 1012.1 hPa NNW 14.8 km/h   91% 0 mm 0.0 W/m2 OVC
09:51 17.2 °C 15.6 °C 1012.1 hPa East 14.8 km/h 14.8 km/h 90% 0 mm 0.0 W/m2 OVC
09:56 17.3 °C 15.5 °C 1012.1 hPa ENE 14.8 km/h   89% 0 mm 0.0 W/m2 OVC
10:01 17.4 °C 15.6 °C 1012.1 hPa WNW 14.8 km/h   89% 0 mm 0.0 W/m2 OVC
10:06 17.4 °C 15.4 °C 1012.1 hPa NNW 14.8 km/h   88% 0 mm 0.0 W/m2 OVC
10:12 17.3 °C 15.3 °C 1012.4 hPa NE 14.8 km/h 14.8 km/h 88% 0 mm 0.0 W/m2 OVC
10:42 18.4 °C 15.5 °C 1012.1 hPa North 14.8 km/h 14.8 km/h 83% 0 mm 0.0 W/m2 OVC
10:47 18.5 °C 15.4 °C 1012.4 hPa NNE 14.8 km/h   82% 0 mm 0.0 W/m2 OVC
10:52 18.6 °C 15.4 °C 1012.4 hPa NNW 14.8 km/h   82% 0 mm 0.0 W/m2 OVC
10:57 18.5 °C 15.2 °C 1012.1 hPa North 14.8 km/h 14.8 km/h 81% 0 mm 0.0 W/m2 OVC
11:02 18.4 °C 14.7 °C 1012.4 hPa North 14.8 km/h   79% 0 mm 0.0 W/m2 OVC
11:08 18.3 °C 14.9 °C 1012.4 hPa NW 14.8 km/h 14.8 km/h 81% 0 mm 0.0 W/m2 OVC
11:13 18.3 °C 14.9 °C 1012.4 hPa North 14.8 km/h 14.8 km/h 81% 0 mm 0.0 W/m2 OVC
11:18 18.4 °C 14.9 °C 1012.1 hPa NW 14.8 km/h 14.8 km/h 80% 0 mm 0.0 W/m2 OVC
11:23 18.8 °C 15.3 °C 1012.1 hPa West 14.8 km/h 14.8 km/h 80% 0 mm 0.0 W/m2 OVC
11:28 19.4 °C 14.8 °C 1012.1 hPa North 14.8 km/h 14.8 km/h 75% 0 mm 0.0 W/m2 OVC
11:33 19.7 °C 15.2 °C 1012.1 hPa NW 14.8 km/h   75% 0 mm 0.0 W/m2 OVC
11:43 19.9 °C 15.3 °C 1011.7 hPa ENE 14.8 km/h 14.8 km/h 75% 0 mm 0.0 W/m2 OVC
11:48 20.3 °C 15.3 °C 1011.7 hPa ENE 14.8 km/h   73% 0 mm 0.0 W/m2 OVC
11:53 20.8 °C 14.9 °C 1011.4 hPa NW 14.8 km/h 14.8 km/h 69% 0 mm 0.0 W/m2 OVC
11:59 21.2 °C 14.8 °C 1011.7 hPa NNW 14.8 km/h 14.8 km/h 67% 0 mm 0.0 W/m2 OVC
12:04 21.2 °C 14.8 °C 1011.7 hPa North 14.8 km/h 14.8 km/h 67% 0 mm 0.0 W/m2 OVC
12:09 21 °C 14.6 °C 1011.4 hPa NW 14.8 km/h 14.8 km/h 67% 0 mm 0.0 W/m2 OVC
12:10 20.9 °C 14.6 °C 1011.4 hPa NNW 14.8 km/h 14.8 km/h 67% 0 mm 0.0 W/m2 OVC
12:15 20.7 °C 14.4 °C 1011.4 hPa North 14.8 km/h   67% 0 mm 0.0 W/m2 OVC
12:20 20.6 °C 14.4 °C 1011.1 hPa North 14.8 km/h   68% 0 mm 0.0 W/m2 OVC
12:26 20.6 °C 14.5 °C 1011.1 hPa NNE 14.8 km/h   68% 0 mm 0.0 W/m2 OVC
12:31 20.8 °C 14.7 °C 1011.1 hPa NNE 14.8 km/h 14.8 km/h 68% 0 mm 0.0 W/m2 OVC
12:36 20.9 °C 13.9 °C 1011.1 hPa North 14.8 km/h 14.8 km/h 64% 0 mm 0.0 W/m2 OVC
12:41 21.3 °C 13.9 °C 1010.7 hPa NNE 14.8 km/h 14.8 km/h 63% 0 mm 0.0 W/m2 OVC
12:46 21.2 °C 13.4 °C 1010.7 hPa NW 14.8 km/h 14.8 km/h 61% 0 mm 0.0 W/m2 OVC
12:51 20.9 °C 13.1 °C 1010.7 hPa WNW 14.8 km/h 14.8 km/h 61% 0 mm 0.0 W/m2 OVC
12:56 20.9 °C 13.6 °C 1010.7 hPa NW 14.8 km/h 14.8 km/h 63% 0 mm 0.0 W/m2 OVC
13:01 21.1 °C 13 °C 1010.7 hPa NNW 14.8 km/h 14.8 km/h 60% 0 mm 0.0 W/m2 OVC
13:07 20.9 °C 12.9 °C 1010.7 hPa NW 14.8 km/h   60% 0 mm 0.0 W/m2 OVC
13:12 20.7 °C 13.2 °C 1010.4 hPa NNW 14.8 km/h 14.8 km/h 62% 0 mm 0.0 W/m2 OVC
13:17 20.5 °C 13.7 °C 1010.7 hPa WNW 14.8 km/h   65% 0 mm 0.0 W/m2 OVC
13:22 20.8 °C 13.5 °C 1010.4 hPa NNE 14.8 km/h   63% 0 mm 0.0 W/m2 OVC
13:27 21.6 °C 13.4 °C 1010 hPa NNE 14.8 km/h 14.8 km/h 60% 0 mm 0.0 W/m2 OVC
13:32 22.1 °C 13.4 °C 1010 hPa NE 14.8 km/h 14.8 km/h 58% 0 mm 0.0 W/m2 OVC
13:37 21.8 °C 13.2 °C 1010 hPa North 14.8 km/h 14.8 km/h 58% 0 mm 0.0 W/m2 OVC
13:42 21.6 °C 13.3 °C 1010 hPa NE 14.8 km/h 14.8 km/h 59% 0 mm 0.0 W/m2 OVC
13:47 21.7 °C 13.1 °C 1010 hPa NNW 14.8 km/h 14.8 km/h 58% 0 mm 0.0 W/m2 OVC
13:52 21.8 °C 12.9 °C 1010 hPa NE 14.8 km/h 14.8 km/h 57% 0 mm 0.0 W/m2 OVC
13:57 21.7 °C 13.1 °C 1010 hPa NW 14.8 km/h 14.8 km/h 58% 0 mm 0.0 W/m2 OVC
14:03 21.4 °C 12.8 °C 1009.7 hPa NE 14.8 km/h 14.8 km/h 58% 0 mm 0.0 W/m2 OVC
14:08 21.6 °C 13.5 °C 1009.7 hPa NNW 14.8 km/h 14.8 km/h 60% 0 mm 0.0 W/m2 OVC
14:13 21.8 °C 13.4 °C 1009.7 hPa NW 14.8 km/h 14.8 km/h 59% 0 mm 0.0 W/m2 OVC
14:18 21.8 °C 13.2 °C 1009.7 hPa WNW 14.8 km/h 14.8 km/h 58% 0 mm 0.0 W/m2 OVC
14:23 21.9 °C 13.3 °C 1009.7 hPa NE 14.8 km/h 14.8 km/h 58% 0 mm 0.0 W/m2 OVC
14:28 21.9 °C 12.7 °C 1009.7 hPa SSW 14.8 km/h 14.8 km/h 56% 0 mm 0.0 W/m2 OVC
14:33 21.7 °C 13.1 °C 1009.7 hPa North 14.8 km/h   58% 0 mm 0.0 W/m2 OVC
14:38 21.7 °C 12.6 °C 1009.7 hPa WNW 14.8 km/h 14.8 km/h 56% 0 mm 0.0 W/m2 OVC
14:43 21.8 °C 12.7 °C 1009.7 hPa North 14.8 km/h 14.8 km/h 56% 0 mm 0.0 W/m2 OVC
14:49 21.8 °C 12.6 °C 1009.7 hPa West 14.8 km/h 14.8 km/h 56% 0 mm 0.0 W/m2 OVC
14:54 21.6 °C 12.7 °C 1009.7 hPa West 14.8 km/h 14.8 km/h 57% 0 mm 0.0 W/m2 OVC
14:59 21.6 °C 12.7 °C 1009.7 hPa WNW 14.8 km/h 14.8 km/h 57% 0 mm 0.0 W/m2 OVC
15:04 21.4 °C 13.1 °C 1009.7 hPa NNE 14.8 km/h 14.8 km/h 59% 0 mm 0.0 W/m2 OVC
15:09 21.6 °C 12.4 °C 1009.7 hPa North 14.8 km/h 14.8 km/h 56% 0 mm 0.0 W/m2 OVC
15:14 21.8 °C 12.7 °C 1009.7 hPa NW 14.8 km/h 14.8 km/h 56% 0 mm 0.0 W/m2 OVC
15:19 21.8 °C 12.7 °C 1009.7 hPa West 14.8 km/h 14.8 km/h 56% 0 mm 0.0 W/m2 OVC
15:24 21.7 °C 12.5 °C 1009.7 hPa NW 14.8 km/h   56% 0 mm 0.0 W/m2 OVC
15:29 21.5 °C 13.2 °C 1010 hPa NW 14.8 km/h 14.8 km/h 59% 0 mm 0.0 W/m2 OVC
15:34 21.7 °C 13.1 °C 1010 hPa NW 14.8 km/h   58% 0 mm 0.0 W/m2 OVC
15:39 21.9 °C 13 °C 1009.7 hPa NW 14.8 km/h 14.8 km/h 57% 0 mm 0.0 W/m2 OVC
15:44 21.9 °C 13.1 °C 1009.7 hPa NE 14.8 km/h 14.8 km/h 57% 0 mm 0.0 W/m2 OVC
15:50 22.2 °C 13.2 °C 1009.7 hPa NW 14.8 km/h   57% 0 mm 0.0 W/m2 OVC
15:55 22.2 °C 12.7 °C 1009.7 hPa WNW 14.8 km/h 14.8 km/h 55% 0 mm 0.0 W/m2 OVC
16:00 22 °C 12.3 °C 1009.7 hPa NE 14.8 km/h 14.8 km/h 54% 0 mm 0.0 W/m2
16:05 21.9 °C 12.4 °C 1010 hPa NW 14.8 km/h 14.8 km/h 55% 0 mm 0.0 W/m2 CLR
16:10 21.8 °C 12.6 °C 1010 hPa NW 14.8 km/h 14.8 km/h 56% 0 mm 0.0 W/m2 CLR
16:15 21.7 °C 12.8 °C 1009.7 hPa NNE 14.8 km/h 14.8 km/h 57% 0 mm 0.0 W/m2 CLR
16:20 21.6 °C 12.4 °C 1009.7 hPa North 14.8 km/h 14.8 km/h 56% 0 mm 0.0 W/m2 CLR
16:25 21.5 °C 12.6 °C 1009.7 hPa NW 14.8 km/h   57% 0 mm 0.0 W/m2 CLR
16:30 21.4 °C 12.6 °C 1009.7 hPa NNW 14.8 km/h   57% 0 mm 0.0 W/m2 CLR
16:35 21.2 °C 12.3 °C 1009.7 hPa NNW 14.8 km/h   57% 0 mm 0.0 W/m2 CLR
16:41 20.9 °C 12.4 °C 1010 hPa West 14.8 km/h   58% 0 mm 0.0 W/m2 CLR
16:46 20.8 °C 12.3 °C 1010 hPa West 14.8 km/h   58% 0 mm 0.0 W/m2 CLR
16:51 20.8 °C 12.5 °C 1010 hPa WNW 14.8 km/h   59% 0 mm 0.0 W/m2 CLR
16:56 20.7 °C 12.4 °C 1009.7 hPa WNW 14.8 km/h 14.8 km/h 59% 0 mm 0.0 W/m2 CLR
17:01 20.6 °C 12.5 °C 1009.7 hPa WNW 14.8 km/h   60% 0 mm 0.0 W/m2 CLR
17:06 20.3 °C 12.6 °C 1009.7 hPa WNW 14.8 km/h   61% 0 mm 0.0 W/m2 CLR
17:11 20.2 °C 12.4 °C 1009.7 hPa North 14.8 km/h   61% 0 mm 0.0 W/m2 CLR
17:16 20.1 °C 12.6 °C 1009.7 hPa North 14.8 km/h   62% 0 mm 0.0 W/m2 CLR
17:21 19.9 °C 12.9 °C 1009.7 hPa North 14.8 km/h   64% 0 mm 0.0 W/m2 CLR
17:26 19.8 °C 12.6 °C 1009.7 hPa WNW 14.8 km/h 14.8 km/h 63% 0 mm 0.0 W/m2 CLR
17:32 19.7 °C 12.7 °C 1009.7 hPa NNW 14.8 km/h   64% 0 mm 0.0 W/m2 CLR
17:37 19.4 °C 12.7 °C 1009.7 hPa NNW 14.8 km/h   65% 0 mm 0.0 W/m2 CLR
17:42 19.2 °C 12.9 °C 1010 hPa NNW 14.8 km/h   67% 0 mm 0.0 W/m2 CLR
17:47 19 °C 12.7 °C 1010 hPa NNW 14.8 km/h   67% 0 mm 0.0 W/m2 CLR
17:52 18.8 °C 12.8 °C 1010 hPa NW 14.8 km/h   68% 0 mm 0.0 W/m2 CLR
17:57 18.7 °C 12.7 °C 1010 hPa NW 14.8 km/h   68% 0 mm 0.0 W/m2 CLR
18:02 18.6 °C 12.8 °C 1010 hPa NNW 14.8 km/h   69% 0 mm 0.0 W/m2
18:07 18.3 °C 12.6 °C 1009.7 hPa NNW 14.8 km/h   69% 0 mm 0.0 W/m2
18:12 18.3 °C 12.7 °C 1010 hPa NNW 14.8 km/h   70% 0 mm 0.0 W/m2
18:17 18.1 °C 12.5 °C 1009.7 hPa NNW 14.8 km/h   70% 0 mm 0.0 W/m2
18:23 17.8 °C 12.5 °C 1010 hPa NNW 14.8 km/h   71% 0 mm 0.0 W/m2
18:28 17.7 °C 12.6 °C 1010 hPa NNW 14.8 km/h   72% 0 mm 0.0 W/m2
18:33 17.5 °C 12.4 °C 1010 hPa NNW 14.8 km/h   72% 0 mm 0.0 W/m2
18:38 17.4 °C 12.5 °C 1010 hPa NNW 14.8 km/h   73% 0 mm 0.0 W/m2
18:43 17.3 °C 12.6 °C 1010 hPa NNW 14.8 km/h   74% 0 mm 0.0 W/m2
18:48 17.1 °C 12.4 °C 1010.4 hPa NNW 14.8 km/h   74% 0 mm 0.0 W/m2
18:53 17 °C 12.6 °C 1010.4 hPa NNW 14.8 km/h   75% 0 mm 0.0 W/m2
18:58 16.9 °C 12.6 °C 1010.4 hPa NNW 14.8 km/h   76% 0 mm 0.0 W/m2
19:03 16.9 °C 12.7 °C 1010.4 hPa NNW 14.8 km/h   76% 0 mm 0.0 W/m2
19:08 17.1 °C 12.8 °C 1010.4 hPa NNW 14.8 km/h   76% 0 mm 0.0 W/m2
19:13 17.1 °C 12.8 °C 1010.4 hPa NNW 14.8 km/h   76% 0 mm 0.0 W/m2
19:18 17.2 °C 13.1 °C 1010.4 hPa NNW 14.8 km/h   77% 0 mm 0.0 W/m2
19:23 17.1 °C 13.1 °C 1010.4 hPa NNW 14.8 km/h   77% 0 mm 0.0 W/m2
19:29 17 °C 12.9 °C 1010.4 hPa NNW 14.8 km/h   77% 0 mm 0.0 W/m2
19:34 16.9 °C 13 °C 1010.7 hPa NNW 14.8 km/h   78% 0 mm 0.0 W/m2
19:39 16.8 °C 13.1 °C 1010.7 hPa NNW 14.8 km/h   79% 0 mm 0.0 W/m2
19:44 16.7 °C 13.2 °C 1010.7 hPa NNW 14.8 km/h   80% 0 mm 0.0 W/m2
19:49 16.6 °C 13.1 °C 1011.1 hPa NNW 14.8 km/h   80% 0 mm 0.0 W/m2
19:54 16.5 °C 13.2 °C 1011.1 hPa North 14.8 km/h   81% 0 mm 0.0 W/m2
19:59 16.5 °C 13.2 °C 1011.1 hPa North 14.8 km/h   81% 0 mm 0.0 W/m2
20:04 16.4 °C 13.1 °C 1011.1 hPa North 14.8 km/h   81% 0 mm 0.0 W/m2
20:09 16.3 °C 13.3 °C 1011.1 hPa North 14.8 km/h   82% 0 mm 0.0 W/m2
20:14 16.2 °C 13.2 °C 1011.1 hPa North 14.8 km/h   82% 0 mm 0.0 W/m2
20:20 16.1 °C 13.1 °C 1011.1 hPa North 14.8 km/h   82% 0 mm 0.0 W/m2
20:25 16.1 °C 13.2 °C 1011.1 hPa North 14.8 km/h   83% 0 mm 0.0 W/m2
20:30 15.9 °C 13.2 °C 1011.4 hPa North 14.8 km/h   84% 0 mm 0.0 W/m2
20:35 15.9 °C 13.2 °C 1011.4 hPa North 14.8 km/h   84% 0 mm 0.0 W/m2
20:40 15.8 °C 13.3 °C 1011.4 hPa North 14.8 km/h   85% 0 mm 0.0 W/m2
20:45 15.8 °C 13.3 °C 1011.7 hPa North 14.8 km/h   85% 0 mm 0.0 W/m2
20:50 15.8 °C 13.3 °C 1011.7 hPa North 14.8 km/h   85% 0 mm 0.0 W/m2
20:55 15.8 °C 13.3 °C 1011.7 hPa North 14.8 km/h   85% 0 mm 0.0 W/m2
21:00 15.8 °C 13.3 °C 1011.7 hPa North 14.8 km/h   85% 0 mm 0.0 W/m2
21:05 15.8 °C 13.5 °C 1012.1 hPa North 14.8 km/h   86% 0 mm 0.0 W/m2
21:11 15.8 °C 13.5 °C 1012.1 hPa North 14.8 km/h   86% 0 mm 0.0 W/m2
21:16 15.8 °C 13.5 °C 1012.1 hPa North 14.8 km/h   86% 0 mm 0.0 W/m2
21:21 15.8 °C 13.5 °C 1012.1 hPa North 14.8 km/h   86% 0 mm 0.0 W/m2
21:26 15.8 °C 13.5 °C 1012.1 hPa North 14.8 km/h   86% 0 mm 0.0 W/m2
21:31 15.9 °C 13.7 °C 1012.1 hPa North 14.8 km/h   87% 0 mm 0.0 W/m2
21:36 15.8 °C 13.4 °C 1012.1 hPa North 14.8 km/h   86% 0 mm 0.0 W/m2
21:41 15.7 °C 13.6 °C 1012.1 hPa North 14.8 km/h   87% 0 mm 0.0 W/m2
21:46 15.7 °C 13.6 °C 1012.1 hPa North 14.8 km/h   87% 0 mm 0.0 W/m2
21:51 15.6 °C 13.4 °C 1012.1 hPa North 14.8 km/h   87% 0 mm 0.0 W/m2
21:56 15.6 °C 13.6 °C 1012.1 hPa North 14.8 km/h   88% 0 mm 0.0 W/m2
22:01 15.5 °C 13.5 °C 1012.1 hPa North 14.8 km/h   88% 0 mm 0.0 W/m2
22:07 15.4 °C 13.4 °C 1011.7 hPa North 14.8 km/h   88% 0 mm 0.0 W/m2
22:12 15.3 °C 13.3 °C 1011.7 hPa North 14.8 km/h   88% 0 mm 0.0 W/m2
22:17 15.1 °C 13.1 °C 1011.7 hPa North 14.8 km/h   88% 0 mm 0.0 W/m2
22:22 15 °C 13.2 °C 1011.7 hPa North 14.8 km/h   89% 0 mm 0.0 W/m2
22:27 14.9 °C 13.2 °C 1011.7 hPa North 14.8 km/h   89% 0 mm 0.0 W/m2
22:32 14.8 °C 13.1 °C 1011.7 hPa North 14.8 km/h   89% 0 mm 0.0 W/m2
22:37 14.8 °C 13 °C 1011.7 hPa North 14.8 km/h   89% 0 mm 0.0 W/m2
22:42 14.6 °C 12.8 °C 1011.7 hPa North 14.8 km/h   89% 0 mm 0.0 W/m2
22:47 14.5 °C 12.7 °C 1011.7 hPa North 14.8 km/h   89% 0 mm 0.0 W/m2
22:52 14.4 °C 12.8 °C 1011.7 hPa North 14.8 km/h   90% 0 mm 0.0 W/m2
22:57 14.4 °C 12.8 °C 1011.7 hPa North 14.8 km/h   90% 0 mm 0.0 W/m2
23:02 14.2 °C 12.6 °C 1011.7 hPa North 14.8 km/h   90% 0 mm 0.0 W/m2
23:08 14.1 °C 12.4 °C 1011.7 hPa North 14.8 km/h   90% 0 mm 0.0 W/m2
23:13 13.9 °C 12.3 °C 1011.7 hPa North 14.8 km/h   90% 0 mm 0.0 W/m2
23:18 13.9 °C 12.4 °C 1011.7 hPa North 14.8 km/h   91% 0 mm 0.0 W/m2
23:23 13.9 °C 12.5 °C 1011.7 hPa North 14.8 km/h   91% 0 mm 0.0 W/m2
23:28 13.8 °C 12.3 °C 1011.4 hPa North 14.8 km/h   91% 0 mm 0.0 W/m2
23:33 13.7 °C 12.2 °C 1011.4 hPa North 14.8 km/h   91% 0 mm 0.0 W/m2
23:38 13.7 °C 12.2 °C 1011.7 hPa North 14.8 km/h   91% 0 mm 0.0 W/m2
23:43 13.6 °C 12.1 °C 1011.7 hPa North 14.8 km/h   91% 0 mm 0.0 W/m2
23:48 13 °C 12.2 °C 1011.7 hPa NNW 14.8 km/h   95% 0 mm 0.0 W/m2
23:53 13 °C 12.2 °C 1011.7 hPa NNW 14.8 km/h   95% 0 mm 0.0 W/m2
23:58 13 °C 12.2 °C 1011.7 hPa North 14.8 km/h   95% 0 mm 0.0 W/m2
Piedmont Bend
Compliments of Weather Underground - 4 mb